SCP
0 0 0 0 0 0 0 0 0 0 0 0 0 0 0 0 0 0 0 1 1 1 1 1 1 0 1 1 1 1 1 0 1 1 1 1 1 1 1 1 1 0 0
0 0 0 0 0 0 0 0 0 0 0 0 0 0 0 0 0 0 0 0 1 1 1 1 0 0 1 1 1 1 1 1 1 1 1 1 1 1 1 1 1 1 1
0 0 0 0 0 0 0 0 0 0 0 0 0 0 0 0 0 0 0 0 0 0 0 0 0 1 1 1 1 1 1 1 1 1 1 1 1 1 1 1 1 1 1
0 0 0 0 0 0 0 0 0 0 0 0 0 0 0 0 0 0 0 0 0 0 0 0 0 0 0 1 1 1 1 1 1 1 1 1 1 1 0 1 1 1 1
0 0 0 0 0 0 0 0 0 0 0 0 0 0 0 0 0 0 0 0 0 0 0 0 0 0 0 0 0 1 1 1 1 1 1 1 1 1 1 1 1 1 1
0 0 0 0 0 0 0 0 0 0 0 0 0 0 0 0 0 0 0 0 0 0 0 0 0 0 0 0 0 0 0 1 1 1 1 1 1 1 1 1 1 1 1
0 0 0 0 0 0 0 0 0 0 0 0 0 0 0 0 0 0 0 0 0 0 0 0 0 0 0 0 0 0 0 1 1 1 1 0 1 1 1 1 1 1 1
0 0 0 0 0 0 0 0 0 0 0 0 0 0 0 0 0 0 0 0 0 0 0 0 0 0 0 0 0 0 0 0 1 1 1 0 0 1 1 1 1 1 1
0 0 0 0 0 0 0 0 0 0 0 0 0 0 0 0 0 0 0 0 0 0 0 0 0 0 0 0 0 0 0 0 0 1 1 0 0 0 0 1 1 1 1
0 0 0 0 0 0 0 0 0 0 0 0 0 0 0 0 0 0 0 0 0 0 0 0 0 0 0 0 0 0 0 0 0 1 1 1 1 0 1 1 1 1 1
0 0 0 0 0 0 0 0 0 0 0 0 0 0 0 0 0 0 0 0 0 0 0 0 0 0 0 0 0 0 0 0 0 0 1 1 1 1 1 1 1 1 1
0 0 0 0 0 0 0 0 0 0 0 0 0 0 0 0 0 0 0 0 0 0 0 0 0 0 0 0 0 0 0 0 0 0 1 1 1 1 1 1 1 1 0
0 0 0 0 0 0 0 0 0 0 0 0 0 0 0 0 0 0 0 0 0 0 0 0 0 0 0 0 0 0 0 0 0 0 0 0 0 0 0 0 0 0 0
0 0 0 0 0 0 0 0 0 0 0 0 0 0 0 0 0 0 0 0 0 0 0 0 0 0 0 0 0 0 0 0 0 0 0 0 0 0 0 0 0 0 0
0 0 0 0 0 0 0 0 0 0 0 0 0 0 0 0 0 0 0 0 0 0 0 0 0 0 0 0 0 0 0 0 0 0 0 0 0 0 0 0 0 0 0
0 0 0 0 0 0 0 0 0 0 0 0 0 0 0 0 0 0 0 0 0 0 0 0 0 0 0 0 0 0 0 0 0 0 0 0 0 0 0 0 0 0 0
0 0 0 0 0 0 0 0 0 0 0 0 0 0 0 0 0 0 0 0 0 0 0 0 0 0 0 0 0 0 0 0 0 0 0 0 0 0 0 0 0 0 0
0 0 0 0 0 0 0 0 0 0 0 0 0 0 0 0 0 0 0 0 0 0 0 0 0 0 0 0 0 0 0 0 0 0 0 0 0 0 0 0 0 0 0
0 0 0 0 0 0 0 0 0 0 0 0 0 0 0 0 0 0 0 0 0 0 0 0 0 0 0 0 0 0 0 0 0 0 0 0 0 0 0 0 0 0 0
0 0 0 0 0 0 0 0 0 0 0 0 0 0 0 0 0 0 0 0 0 0 0 0 0 0 0 0 0 0 0 0 0 0 0 0 0 0 0 0 0 0 0
0 0 0 0 0 0 0 0 0 0 0 0 0 0 0 0 0 0 0 0 0 0 0 0 0 0 0 0 0 0 0 0 0 0 0 0 0 0 0 0 0 0 0
0 0 0 0 0 0 0 0 0 0 0 0 0 0 0 0 0 0 0 0 0 0 0 0 0 0 0 0 0 0 0 0 0 0 0 0 0 0 0 0 0 0 0
0 0 0 0 0 0 0 0 0 0 0 0 0 0 0 0 0 0 0 0 0 0 0 0 0 0 0 0 0 0 0 0 0 0 0 0 0 0 0 0 0 0 0
0 0 0 0 0 0 0 0 0 0 0 0 0 0 0 0 0 0 0 0 0 0 0 0 0 0 0 0 0 0 0 0 0 0 0 0 0 0 0 0 0 0 0
0 0 0 0 0 0 0 0 0 0 0 0 0 0 0 0 0 0 0 0 0 0 0 0 0 0 0 0 0 0 0 0 0 0 0 0 0 0 0 0 0 0 0
0 0 0 0 0 1 1 0 0 0 0 0 0 0 0 0 0 0 0 0 0 0 0 0 0 0 0 0 0 0 0 0 0 0 0 0 0 0 0 0 0 0 0
Wind_Speed
2 3 2 3 3 3 3 4 4 5 5 6 5 6 6 5 5 4 4 10 9 9 8 8 7 7 6 7 7 6 6 6 6 6 5 5 5 5 4 4 3 3 3
2 3 3 3 3 3 3 3 4 4 4 4 6 5 5 5 5 5 4 6 10 10 9 8 8 8 8 8 8 7 7 7 7 7 7 6 6 6 5 4 4 3 3
3 3 3 3 2 3 3 4 4 4 4 4 5 5 4 5 5 5 5 4 5 9 10 10 9 9 9 9 8 8 8 8 7 8 7 7 6 6 6 5 5 4 4
3 3 2 2 2 2 3 3 3 4 4 4 4 4 4 4 5 5 5 5 4 5 7 12 12 11 10 9 9 8 8 8 8 8 7 8 8 7 7 6 6 6 5
3 3 3 2 2 3 2 3 3 3 3 3 3 4 4 4 4 5 6 6 6 5 5 8 12 13 12 10 10 9 9 8 8 8 8 8 8 8 8 8 8 7 6
3 3 3 2 2 3 3 3 3 3 3 3 4 4 4 3 3 4 5 4 5 6 6 6 5 8 12 12 11 10 10 10 9 9 9 9 9 9 9 8 8 8 8
3 3 2 2 2 3 3 3 3 3 2 2 3 3 3 4 4 4 3 4 5 5 5 5 4 4 5 10 11 11 11 11 11 10 10 9 9 9 9 9 9 9 9
2 2 3 2 2 3 3 2 2 2 1 1 2 2 2 3 4 4 3 3 4 3 4 5 5 5 4 4 7 12 11 11 11 10 10 9 9 9 9 9 9 9 9
1 2 2 2 2 2 2 2 2 2 2 1 1 2 2 1 1 3 3 3 3 3 3 3 4 4 4 4 4 7 10 10 10 10 9 9 9 9 9 9 10 11 11
1 1 2 2 2 2 2 2 2 1 2 1 1 1 1 2 2 1 2 2 3 3 3 3 3 3 4 3 4 7 9 10 10 10 10 9 9 9 9 10 10 11 11
1 1 1 2 2 2 2 2 2 1 2 2 1 1 1 2 2 2 0 2 2 2 2 2 2 2 3 3 3 5 8 8 9 10 10 9 9 8 9 9 10 10 11
1 0 1 1 2 2 2 2 2 2 1 2 1 1 2 2 1 2 2 0 1 1 2 2 2 2 2 2 3 6 7 7 8 9 10 10 10 9 9 9 10 10 10
1 1 1 1 1 2 2 2 2 1 1 1 1 1 1 1 2 2 3 1 0 1 2 2 1 1 1 1 2 5 5 6 7 8 9 9 10 10 10 10 10 10 10
2 2 2 2 2 2 2 2 2 1 1 1 1 1 1 1 2 2 3 3 1 1 1 2 1 1 1 1 2 3 3 5 6 6 7 8 8 9 9 9 9 10 10
2 2 2 2 2 2 2 2 1 2 1 1 1 1 1 1 1 1 2 3 3 1 1 2 1 1 0 0 1 1 1 3 4 5 6 6 7 7 7 7 8 9 9
2 2 2 2 2 2 2 2 1 1 1 1 1 1 1 1 1 1 2 1 2 3 2 1 1 1 0 1 1 1 1 2 3 3 4 5 5 5 6 6 6 7 8
2 3 3 3 3 3 2 2 2 2 2 1 1 2 1 1 1 1 1 1 1 2 2 1 1 0 0 0 1 1 1 1 1 2 3 3 4 4 4 5 5 6 6
2 3 3 3 3 2 2 3 3 2 3 3 2 2 2 1 1 2 2 2 2 2 3 2 1 0 0 1 0 0 1 1 1 1 2 2 3 3 3 4 5 5 5
2 2 2 3 3 3 3 3 3 3 3 3 3 3 3 3 2 2 2 2 2 2 2 3 2 0 0 0 1 1 1 1 1 1 2 2 3 3 3 3 4 4 4
2 2 3 3 3 3 3 3 3 2 2 2 3 3 3 4 4 3 2 3 2 2 2 2 2 1 1 0 1 0 1 1 1 1 2 2 2 3 3 3 3 3 3
2 2 2 2 2 3 3 3 3 3 2 2 2 2 3 4 5 4 3 3 4 3 3 2 2 1 1 1 2 1 1 0 1 1 1 2 2 1 2 2 1 1 2
1 1 2 3 3 3 4 5 4 3 3 2 2 2 2 3 3 4 4 5 6 5 4 3 2 3 3 3 2 2 2 1 1 1 0 1 1 1 1 1 2 1 1
1 2 2 2 3 4 5 5 6 4 3 3 3 2 2 2 2 2 2 3 4 5 6 5 4 5 4 5 4 3 3 2 2 1 1 1 1 1 2 2 2 1 0
2 2 2 2 3 4 5 5 5 3 2 3 3 3 3 2 2 2 2 2 2 2 4 4 5 5 4 5 5 4 3 2 0 0 1 1 1 1 2 2 2 1 0
2 2 2 3 3 4 4 4 4 2 2 2 2 2 3 3 4 4 3 2 2 2 3 4 4 4 4 5 6 4 3 2 1 2 2 2 1 1 1 2 2 1 1
3 2 2 3 4 4 4 4 5 3 2 2 2 2 4 4 4 4 4 4 3 3 1 1 1 1 2 4 7 5 5 3 2 2 3 2 1 0 1 1 1 1 1
Wind_Direction
66 54 46 45 46 49 57 58 56 54 51 50 53 54 47 42 38 33 21 37 47 52 57 58 57 61 67 64 59 56 53 54 50 45 43 44 41 36 28 24 23 25 24
83 72 58 53 48 51 61 64 65 61 55 54 51 52 48 44 39 36 30 27 37 41 43 47 51 56 60 58 56 54 53 54 51 49 48 47 44 39 31 32 27 29 26
92 89 72 58 50 55 65 68 63 60 62 57 50 48 48 44 43 38 34 28 25 35 39 42 47 51 55 57 56 54 51 52 51 49 48 46 44 43 39 34 30 31 35
95 93 82 65 59 59 65 73 67 64 58 58 50 42 42 43 42 41 41 35 30 29 33 42 46 50 52 53 55 54 53 54 53 49 49 48 46 48 47 42 40 40 38
95 99 91 77 72 72 63 77 70 78 73 67 66 51 40 41 37 44 44 39 37 34 31 38 44 45 45 48 50 50 52 51 51 50 48 48 46 47 46 42 40 40 38
95 100 98 88 83 83 68 70 77 70 77 74 71 58 43 39 41 42 40 41 41 40 37 33 31 34 38 41 44 48 48 48 52 55 53 50 46 44 42 40 42 43 43
98 98 102 92 88 96 101 97 92 79 66 69 76 55 35 40 46 41 37 40 40 38 40 38 34 29 24 33 37 44 46 50 54 55 52 49 44 43 42 40 45 45 47
100 110 112 114 106 107 101 99 101 98 70 62 101 93 38 15 20 29 32 40 33 32 39 40 37 34 26 21 28 37 41 47 50 50 49 46 46 46 44 44 46 46 51
94 108 123 124 121 123 132 130 121 116 118 55 72 125 129 167 343 0 23 33 27 31 29 30 38 32 28 25 19 27 36 39 44 46 47 46 45 46 47 48 48 51 51
84 112 125 128 130 129 138 152 126 129 131 123 53 46 114 152 142 32 356 13 24 29 19 23 27 26 26 22 26 33 37 36 39 42 44 44 44 47 50 49 50 51 50
60 101 128 129 137 142 158 163 132 135 137 146 143 126 94 74 101 136 154 343 11 12 14 15 16 14 16 16 20 36 39 37 36 39 39 39 41 44 52 54 53 52 50
358 55 138 141 156 159 172 175 160 147 141 136 137 144 150 146 157 143 160 218 343 337 3 10 9 0 6 7 25 39 42 42 43 41 39 39 41 44 51 52 52 51 50
257 242 184 177 176 185 185 167 155 158 159 150 161 165 162 171 156 148 141 164 331 328 348 351 335 340 358 13 11 33 40 46 49 48 45 43 43 43 45 46 47 47 47
223 211 196 196 193 180 176 165 154 179 176 177 175 162 156 170 154 157 157 150 123 347 347 303 325 323 335 6 13 21 28 43 48 49 48 46 46 44 42 41 40 39 41
219 196 187 190 191 178 176 165 169 199 178 184 194 184 172 173 155 169 163 163 156 172 284 267 276 300 286 110 16 29 15 43 43 46 46 46 47 44 43 42 38 36 36
220 197 189 188 188 183 174 165 180 202 181 208 189 174 183 172 155 157 165 167 169 167 209 249 235 256 266 112 82 51 20 41 34 38 45 47 46 44 42 40 38 36 36
215 207 196 190 190 192 189 181 197 190 193 222 211 189 204 174 163 165 157 153 158 154 186 261 244 248 117 91 28 33 41 7 357 27 39 45 46 47 43 40 36 35 34
218 205 194 188 194 195 194 191 204 204 202 214 218 203 215 182 183 183 172 174 176 172 167 192 221 235 211 199 128 85 35 38 344 9 34 42 46 46 41 38 35 31 30
223 201 186 195 201 196 194 203 204 212 216 217 210 205 213 183 200 206 195 186 181 165 158 164 188 175 142 150 72 35 38 15 352 25 29 25 32 39 39 38 35 27 25
219 213 203 204 205 199 198 202 198 203 214 221 212 209 208 198 205 203 200 191 164 143 142 153 163 166 169 159 121 123 11 3 345 4 12 16 17 18 15 26 30 28 24
232 217 199 204 207 200 201 195 195 190 191 214 227 221 218 213 210 201 196 183 161 150 150 158 169 171 186 180 194 183 181 335 323 316 347 350 349 349 342 336 347 19 26
241 210 209 206 212 221 213 196 183 182 191 199 222 232 234 217 218 215 205 177 166 164 169 170 185 192 206 198 184 178 164 149 272 241 173 303 347 307 301 287 299 313 34
235 228 232 223 226 229 215 203 192 179 190 205 215 213 230 231 214 199 200 176 187 191 180 173 183 204 200 195 178 185 191 201 226 217 151 280 307 283 286 298 290 243 206
226 231 232 233 234 239 225 214 200 179 184 209 221 214 208 217 204 178 162 163 202 219 211 197 197 207 204 189 183 186 184 176 225 232 164 214 275 282 303 309 307 248 230
228 237 227 218 225 245 230 209 177 164 183 221 233 224 208 209 209 176 157 180 224 261 248 227 222 222 216 194 169 140 149 154 219 245 195 184 235 301 312 300 309 326 328
222 226 233 225 219 232 232 212 177 166 179 215 245 240 229 219 214 186 171 179 213 240 230 238 234 223 205 189 184 183 180 179 184 227 202 180 191 162 297 285 298 311 311